| time (UTC) | temp C | wind direction | speed KPH | gust KPH | rain 1hr cm | rain 24hr cm | rain mn cm | humidity % | barometer mb |
| 20260505073017 | 18 | 156 | 16.1 | 22.5 | 0.00 | 0.00 | 0.00 | 81 | 1017.5 |
| 20260505072025 | 17 | 141 | 14.5 | 20.9 | 0.00 | 0.00 | 0.00 | 82 | 1017.5 |
| 20260505071016 | 17 | 170 | 17.7 | 27.4 | 0.00 | 0.00 | 0.00 | 82 | 1017.6 |
| 20260505070024 | 17 | 172 | 17.7 | 25.7 | 0.00 | 0.00 | 0.00 | 82 | 1017.5 |
| 20260505065017 | 17 | 151 | 16.1 | 22.5 | 0.00 | 0.00 | 0.00 | 83 | 1017.5 |
| 20260505064024 | 17 | 160 | 16.1 | 24.1 | 0.00 | 0.00 | 0.00 | 84 | 1017.4 |
| 20260505063016 | 17 | 169 | 14.5 | 22.5 | 0.00 | 0.00 | 0.00 | 85 | 1017.3 |
| 20260505062025 | 17 | 157 | 14.5 | 22.5 | 0.00 | 0.00 | 0.00 | 88 | 1017.3 |
| 20260505061017 | 16 | 142 | 11.3 | 22.5 | 0.00 | 0.00 | 0.00 | 90 | 1017.2 |
| 20260505060024 | 16 | 149 | 14.5 | 20.9 | 0.00 | 0.00 | 0.00 | 91 | 1017.1 |
| 20260505055017 | 15 | 156 | 16.1 | 25.7 | 0.00 | 0.00 | 0.00 | 92 | 1017.2 |
| 20260505054044 | 15 | 147 | 14.5 | 22.5 | 0.00 | 0.00 | 0.00 | 91 | 1017.2 |
| 20260505053016 | 15 | 150 | 11.3 | 17.7 | 0.00 | 0.00 | 0.00 | 91 | 1017.2 |
| 20260505052024 | 14 | 218 | 3.2 | 6.4 | 0.00 | 0.00 | 0.00 | 90 | 1017.3 |
| 20260505051017 | 13 | 177 | 4.8 | 6.4 | 0.00 | 0.00 | 0.00 | 89 | 1017.1 |
| 20260505041016 | 11 | 0.0 | 0.0 | 0.00 | 0.00 | 0.00 | 91 | 1016.8 | |
| 20260505040024 | 11 | 0.0 | 0.0 | 0.00 | 0.00 | 0.00 | 91 | 1016.9 | |
| 20260505035016 | 11 | 103 | 0.0 | 3.2 | 0.00 | 0.00 | 0.00 | 90 | 1016.8 |
| 20260505034024 | 11 | 97 | 3.2 | 3.2 | 0.00 | 0.00 | 0.00 | 91 | 1016.8 |
| 20260505033016 | 11 | 64 | 0.0 | 3.2 | 0.00 | 0.00 | 0.00 | 92 | 1016.9 |
| 20260505032025 | 11 | 73 | 3.2 | 4.8 | 0.00 | 0.00 | 0.00 | 92 | 1016.8 |
| 20260505031018 | 11 | 102 | 1.6 | 3.2 | 0.00 | 0.00 | 0.00 | 92 | 1017.0 |
| 20260505030026 | 12 | 62 | 3.2 | 4.8 | 0.00 | 0.00 | 0.00 | 92 | 1016.9 |
| 20260505025019 | 11 | 59 | 1.6 | 4.8 | 0.00 | 0.00 | 0.00 | 92 | 1017.0 |
| 20260505024026 | 11 | 42 | 0.0 | 1.6 | 0.00 | 0.00 | 0.00 | 92 | 1017.1 |
| 20260505023039 | 12 | 0.0 | 0.0 | 0.00 | 0.00 | 0.00 | 92 | 1017.0 | |
| 20260505022026 | 12 | 0.0 | 0.0 | 0.00 | 0.00 | 0.00 | 92 | 1017.1 | |
| 20260505021020 | 12 | 0.0 | 0.0 | 0.00 | 0.00 | 0.00 | 92 | 1017.0 | |
| 20260505020026 | 12 | 0.0 | 0.0 | 0.00 | 0.00 | 0.00 | 92 | 1016.9 | |
| 20260505015018 | 12 | 0.0 | 0.0 | 0.00 | 0.00 | 0.00 | 92 | 1016.9 | |
| 20260505014026 | 12 | 78 | 1.6 | 3.2 | 0.00 | 0.00 | 0.00 | 92 | 1016.9 |
| 20260505013019 | 12 | 93 | 1.6 | 3.2 | 0.00 | 0.00 | 0.00 | 92 | 1017.0 |
| 20260505012026 | 12 | 92 | 0.0 | 3.2 | 0.00 | 0.00 | 0.00 | 91 | 1017.0 |
| 20260505011039 | 12 | 83 | 1.6 | 3.2 | 0.00 | 0.00 | 0.00 | 91 | 1017.1 |
| 20260505010026 | 12 | 90 | 4.8 | 6.4 | 0.00 | 0.00 | 0.00 | 91 | 1017.1 |
| 20260505005018 | 12 | 90 | 3.2 | 3.2 | 0.00 | 0.00 | 0.00 | 91 | 1017.1 |
| 20260505004026 | 12 | 82 | 0.0 | 3.2 | 0.00 | 0.00 | 0.00 | 90 | 1017.1 |
| 20260505003018 | 12 | 80 | 1.6 | 3.2 | 0.00 | 0.00 | 0.00 | 90 | 1017.1 |
| 20260505002026 | 12 | 79 | 1.6 | 3.2 | 0.00 | 0.00 | 0.00 | 90 | 1017.2 |
| 20260505001019 | 12 | 0.0 | 0.0 | 0.00 | 0.00 | 0.00 | 90 | 1017.2 | |
| 20260505000026 | 12 | 0.0 | 0.0 | 0.00 | 0.00 | 0.00 | 89 | 1017.4 | |
| 20260504235039 | 13 | 42 | 0.0 | 3.2 | 0.00 | 0.00 | 0.00 | 90 | 1017.5 |
| 20260504234026 | 13 | 41 | 1.6 | 3.2 | 0.00 | 0.00 | 0.00 | 90 | 1017.6 |
| 20260504233059 | 13 | 33 | 0.0 | 3.2 | 0.00 | 0.00 | 0.00 | 90 | 1017.7 |
| 20260504232026 | 13 | 13 | 1.6 | 3.2 | 0.00 | 0.00 | 0.00 | 91 | 1017.7 |
| 20260504231019 | 11 | 71 | 3.2 | 4.8 | 0.00 | 0.00 | 0.00 | 91 | 1017.9 |
| 20260504230026 | 12 | 92 | 0.0 | 3.2 | 0.00 | 0.00 | 0.00 | 90 | 1018.0 |
| 20260504225019 | 12 | 0.0 | 0.0 | 0.00 | 0.00 | 0.00 | 90 | 1018.0 | |
| 20260504224027 | 13 | 0.0 | 0.0 | 0.00 | 0.00 | 0.00 | 91 | 1018.0 | |
| 20260504223039 | 13 | 346 | 1.6 | 3.2 | 0.00 | 0.00 | 0.00 | 91 | 1018.1 |
| 20260504222026 | 13 | 329 | 1.6 | 3.2 | 0.00 | 0.00 | 0.00 | 91 | 1018.1 |
| 20260504221019 | 13 | 319 | 3.2 | 4.8 | 0.00 | 0.00 | 0.00 | 91 | 1018.0 |
| 20260504220026 | 13 | 286 | 3.2 | 4.8 | 0.00 | 0.00 | 0.00 | 91 | 1018.1 |
| 20260504215019 | 13 | 285 | 1.6 | 4.8 | 0.00 | 0.00 | 0.00 | 90 | 1018.1 |
| 20260504214027 | 14 | 0.0 | 0.0 | 0.00 | 0.00 | 0.00 | 90 | 1018.1 | |
| 20260504213019 | 15 | 0.0 | 0.0 | 0.00 | 0.00 | 0.00 | 90 | 1018.1 | |
| 20260504212026 | 15 | 0.0 | 0.0 | 0.00 | 0.00 | 0.00 | 90 | 1018.2 | |
| 20260504211020 | 15 | 53 | 1.6 | 3.2 | 0.00 | 0.00 | 0.00 | 90 | 1018.2 |
| 20260504210046 | 15 | 0.0 | 0.0 | 0.00 | 0.00 | 0.00 | 90 | 1018.4 | |
| 20260504205020 | 15 | 0.0 | 0.0 | 0.00 | 0.00 | 0.00 | 89 | 1018.5 | |
| 20260504204026 | 14 | 0.0 | 0.0 | 0.00 | 0.00 | 0.00 | 88 | 1018.3 | |
| 20260504203018 | 14 | 330 | 0.0 | 1.6 | 0.00 | 0.00 | 0.00 | 88 | 1018.2 |
| 20260504202026 | 14 | 296 | 4.8 | 4.8 | 0.00 | 0.00 | 0.00 | 86 | 1018.2 |
| 20260504201019 | 15 | 200 | 1.6 | 4.8 | 0.00 | 0.00 | 0.00 | 86 | 1018.0 |
| 20260504200026 | 15 | 114 | 1.6 | 3.2 | 0.00 | 0.00 | 0.00 | 85 | 1017.9 |
| 20260504195058 | 15 | 113 | 3.2 | 4.8 | 0.00 | 0.00 | 0.00 | 84 | 1017.8 |
| 20260504194026 | 15 | 0.0 | 0.0 | 0.00 | 0.00 | 0.00 | 82 | 1017.9 | |
| 20260504193018 | 15 | 0.0 | 1.6 | 0.00 | 0.00 | 0.00 | 81 | 1017.9 | |
| 20260504192107 | 15 | 142 | 1.6 | 3.2 | 0.00 | 0.00 | 0.00 | 80 | 1018.0 |
| 20260504191018 | 16 | 112 | 1.6 | 4.8 | 0.00 | 0.00 | 0.00 | 79 | 1017.8 |
| 20260504190026 | 16 | 0.0 | 0.0 | 0.00 | 0.00 | 0.00 | 78 | 1017.7 | |
| 20260504185019 | 16 | 0.0 | 0.0 | 0.00 | 0.00 | 0.00 | 76 | 1017.6 | |
| 20260504184026 | 16 | 164 | 1.6 | 3.2 | 0.00 | 0.00 | 0.00 | 74 | 1017.7 |
| 20260504183018 | 17 | 146 | 3.2 | 3.2 | 0.00 | 0.00 | 0.00 | 73 | 1017.4 |
| 20260504182026 | 17 | 178 | 0.0 | 1.6 | 0.00 | 0.00 | 0.00 | 72 | 1017.4 |
| 20260504181018 | 17 | 223 | 1.6 | 3.2 | 0.00 | 0.00 | 0.00 | 71 | 1017.3 |
| 20260504180024 | 17 | 165 | 3.2 | 4.8 | 0.00 | 0.00 | 0.00 | 70 | 1017.4 |
| 20260504175038 | 18 | 140 | 4.8 | 6.4 | 0.00 | 0.00 | 0.00 | 67 | 1017.3 |
| 20260504174024 | 18 | 186 | 4.8 | 9.7 | 0.00 | 0.00 | 0.00 | 63 | 1017.3 |
| 20260504173017 | 18 | 158 | 6.4 | 11.3 | 0.00 | 0.00 | 0.00 | 59 | 1017.2 |
| 20260504172025 | 20 | 186 | 8.0 | 12.9 | 0.00 | 0.00 | 0.00 | 51 | 1017.2 |
| 20260504171017 | 21 | 100 | 1.6 | 3.2 | 0.00 | 0.00 | 0.00 | 45 | 1017.1 |
| 20260504170106 | 21 | 216 | 3.2 | 6.4 | 0.00 | 0.00 | 0.00 | 48 | 1017.0 |
| 20260504151016 | 24 | 206 | 1.6 | 6.4 | 0.00 | 0.00 | 0.00 | 39 | 1017.1 |
| 20260504141017 | 23 | 118 | 6.4 | 14.5 | 0.00 | 0.00 | 0.00 | 41 | 1016.9 |
| 20260504081037 | 21 | 329 | 4.8 | 12.9 | 0.00 | 0.00 | 0.00 | 46 | 1019.0 |